Wind_Speed
12 13 13 13 13 14 13 13 13 13 14 16 17 18 18 19 20 20 21 22 23 25 27 29 30 32 33 35 36 37 38 39 40 41 43 44 45 46 46 46 45 44 43 41
11 12 12 12 12 13 13 13 14 15 17 18 20 20 21 22 22 22 22 23 25 26 28 30 32 34 36 37 38 39 40 41 41 43 44 45 46 47 47 46 46 45 43 41
10 11 11 11 11 12 13 14 15 16 18 20 22 22 23 23 23 23 24 25 26 28 30 32 34 36 37 39 39 40 41 41 42 44 45 46 47 47 47 47 46 45 43 41
10 10 10 10 11 11 12 13 15 17 19 21 22 23 23 23 23 24 25 26 28 30 32 34 36 38 39 40 40 41 42 43 44 45 46 47 48 48 47 46 46 44 42 41
11 11 9 9 12 12 13 13 16 18 20 21 22 23 23 24 25 26 26 28 29 31 33 36 38 39 40 40 41 42 43 44 45 46 47 48 48 48 47 46 45 44 42 41
15 14 11 11 13 14 14 14 17 19 20 21 23 23 24 26 27 28 29 30 31 33 35 37 38 39 40 40 41 43 44 45 46 47 48 49 48 47 46 45 44 43 42 40
19 17 15 15 17 16 18 18 18 19 21 22 24 25 26 27 28 30 31 33 34 36 37 39 39 40 41 41 42 44 45 46 48 49 50 50 48 47 45 44 43 42 41 40
22 20 21 20 20 21 21 21 22 22 23 24 25 26 27 28 30 31 33 35 37 39 39 40 41 41 42 43 44 46 47 48 50 51 51 49 47 45 44 43 42 41 40 38
24 23 23 24 24 24 25 25 25 26 26 27 27 28 29 30 32 33 36 38 39 40 41 41 42 43 44 45 47 48 50 51 52 51 51 49 46 44 43 42 41 40 38 37
28 26 27 28 28 28 28 29 29 29 30 31 31 30 31 32 34 35 37 39 41 41 42 43 43 44 46 47 49 51 52 52 52 51 50 48 45 43 42 41 39 38 37 36
30 30 31 30 30 30 30 31 32 32 33 34 34 33 34 35 36 37 38 39 41 42 42 44 45 46 48 50 52 53 54 54 53 51 49 47 44 42 41 40 38 37 36 35
33 33 34 33 33 33 33 33 34 35 36 36 37 37 37 37 38 38 39 40 41 42 43 45 47 49 51 53 55 56 55 54 52 50 48 45 42 41 40 38 37 36 35 34
34 35 35 35 35 34 35 35 36 37 38 39 39 39 39 39 39 40 41 42 43 43 45 47 50 52 54 56 57 57 56 54 51 49 46 43 40 38 37 37 36 35 35 34
34 36 37 37 37 37 37 38 39 40 41 42 42 41 41 42 41 43 45 45 45 46 47 50 52 54 56 57 58 57 56 53 50 47 44 41 39 37 36 35 34 34 34 33
34 36 38 39 40 40 40 41 42 42 43 44 44 44 45 46 46 47 48 49 48 48 49 52 53 55 58 59 58 57 54 51 48 45 42 39 38 37 36 35 33 32 32 32
37 38 40 41 42 43 44 44 44 45 45 45 46 47 48 49 50 51 51 51 51 51 53 54 55 57 59 59 58 55 52 49 46 43 40 38 37 36 35 33 32 32 31 30
39 41 42 43 44 44 45 46 46 46 46 47 48 50 51 53 53 53 53 55 56 57 57 57 59 60 60 58 55 53 50 47 44 41 39 37 35 34 33 32 31 31 31 30
40 41 42 43 44 45 45 46 47 47 48 50 52 53 54 55 56 57 59 60 60 60 59 60 60 59 58 56 53 51 48 45 41 39 36 34 33 33 31 30 30 30 30 29
43 43 44 45 45 46 47 48 50 52 53 54 56 58 59 60 61 62 62 63 62 61 60 61 60 58 55 53 51 48 45 42 39 36 34 32 32 31 30 29 29 29 28 27
45 45 46 47 49 50 51 52 54 56 58 59 61 62 63 64 65 65 65 65 64 62 61 59 57 54 51 49 47 44 42 39 36 34 32 31 30 29 28 27 27 27 26 25
48 49 50 52 53 55 57 58 60 62 63 65 66 66 67 67 67 67 66 64 62 60 58 55 52 49 47 45 42 40 38 35 33 31 29 29 28 26 25 25 25 24 24 23
53 54 56 57 59 60 62 64 65 66 67 68 68 69 68 67 66 65 63 61 58 56 53 50 48 45 43 41 38 36 34 32 30 29 28 27 25 23 23 23 22 22 22 21
58 59 61 62 64 65 66 66 67 67 68 68 67 67 65 64 62 60 57 56 54 51 49 46 44 41 39 37 35 33 30 29 28 27 25 24 23 21 20 20 20 20 19 19
62 63 64 65 65 65 66 66 66 66 65 65 64 63 62 60 58 57 55 52 50 48 45 43 40 37 35 33 30 28 27 26 25 24 22 21 20 19 18 18 18 18 17 16
63 64 64 65 65 65 65 65 64 64 64 63 62 61 60 58 56 54 51 49 46 44 41 38 35 33 31 30 28 26 25 24 23 22 21 20 18 17 17 16 16 15 15 14
63 63 64 64 64 64 64 63 63 62 61 60 58 56 54 52 50 48 45 43 41 38 35 33 31 29 28 28 26 24 23 22 21 20 19 17 16 15 15 14 14 13 12 12
60 61 61 61 61 60 59 59 58 56 54 53 51 48 47 45 42 40 38 36 33 31 29 27 26 25 24 24 23 22 21 20 19 18 17 15 14 14 13 12 12 11 9 9
Wind_Direction
282 277 275 276 277 280 288 298 304 310 312 313 315 319 322 326 328 329 331 332 334 334 335 335 335 335 334 334 333 333 333 332 332 331 331 330 329 328 327 326 324 323 320 316
286 286 285 287 286 287 293 300 302 305 307 308 312 316 319 321 323 324 326 328 330 332 332 333 332 332 332 332 332 332 331 331 330 330 329 329 328 327 326 325 324 323 320 317
285 291 297 300 299 298 299 300 300 300 304 307 311 315 316 318 319 321 323 325 328 329 330 330 330 330 330 330 330 330 330 330 330 329 328 327 327 326 325 324 323 322 320 317
283 290 296 302 302 303 303 303 301 302 305 308 311 314 315 316 317 319 321 323 326 327 328 328 328 328 328 328 328 329 329 329 329 328 327 326 326 325 324 324 323 322 320 318
283 288 292 296 300 302 305 306 302 304 306 309 311 313 314 315 317 318 320 322 324 325 325 326 326 326 326 327 327 328 329 329 328 328 327 325 324 324 323 323 323 322 321 319
283 290 288 301 298 301 301 304 301 303 304 308 311 313 315 316 317 318 319 320 321 322 323 323 324 324 325 326 327 328 329 329 328 327 326 325 324 323 323 323 323 323 321 320
283 288 293 300 302 302 305 304 302 303 304 307 310 312 314 314 315 315 316 317 318 320 321 322 322 323 324 325 326 327 328 328 327 326 325 324 323 322 322 323 324 323 322 321
283 288 294 298 300 301 301 301 302 302 304 306 309 310 311 311 311 312 313 314 316 318 319 321 322 323 325 325 326 326 327 326 325 325 324 324 323 322 322 323 324 324 324 323
282 287 292 294 296 298 299 300 301 302 303 305 306 307 307 307 308 309 311 312 314 316 318 320 322 323 325 326 327 327 326 326 325 324 323 324 323 322 323 324 325 325 325 324
283 287 288 289 292 294 295 297 299 300 301 302 303 304 304 304 306 308 309 311 313 315 317 319 321 323 325 326 326 326 326 326 325 324 324 324 323 323 323 324 325 326 326 325
276 280 280 283 286 288 291 294 295 296 296 298 299 300 301 302 303 305 307 309 311 314 316 318 320 322 324 324 325 325 325 325 325 325 324 324 323 323 323 324 324 326 327 326
276 278 280 283 285 288 290 291 292 293 294 295 297 298 299 300 302 304 305 307 309 311 313 317 319 320 321 322 323 324 324 325 325 325 325 324 324 323 324 324 325 327 328 328
277 279 282 284 286 288 288 289 290 291 293 294 296 297 298 299 300 302 304 304 306 308 311 314 316 317 318 320 321 322 323 324 324 324 325 325 324 323 324 325 326 327 328 329
277 280 281 283 284 285 286 287 289 290 292 293 295 296 297 297 298 300 302 302 303 305 309 311 312 313 314 316 318 319 321 322 323 323 324 324 324 324 324 325 325 326 327 328
278 278 279 281 282 283 284 286 287 289 290 292 293 294 296 296 296 297 299 299 301 304 307 308 310 310 312 314 316 317 318 320 321 322 322 322 322 322 323 324 325 325 326 327
278 277 278 280 282 283 285 287 288 289 289 290 291 292 294 296 296 296 297 299 300 303 305 306 307 308 310 312 314 315 316 318 319 320 320 320 320 321 322 324 325 326 326 327
276 277 279 280 282 284 285 287 287 288 288 289 290 291 292 292 293 293 295 298 300 302 303 304 305 306 308 311 312 312 313 315 316 317 318 319 319 320 321 323 325 326 326 326
279 280 282 283 283 284 285 286 286 287 288 289 289 289 290 291 292 293 296 298 300 301 302 303 304 305 307 308 308 309 310 311 313 315 316 316 318 319 320 322 324 325 327 328
284 284 285 285 285 286 286 286 286 287 287 287 288 289 290 292 293 295 296 298 299 300 301 301 302 304 304 305 305 306 307 308 309 311 312 313 315 317 319 321 323 325 326 329
285 285 286 286 286 287 287 287 287 287 287 288 289 290 291 293 294 295 296 298 298 299 299 300 301 301 301 301 303 303 303 305 307 307 308 309 312 314 317 320 322 325 327 329
285 285 285 286 287 287 287 288 288 288 289 290 290 291 292 293 294 295 296 296 297 297 298 298 298 297 297 298 299 299 299 300 302 304 304 305 308 311 314 318 322 325 327 330
286 287 287 287 287 287 288 288 289 289 290 290 291 291 292 293 293 294 295 295 296 296 295 296 295 294 294 294 294 294 295 295 297 300 301 302 304 308 312 317 320 324 327 330
287 287 288 288 288 289 289 289 290 290 291 291 292 292 292 293 293 293 293 293 294 293 293 293 292 291 290 290 289 289 291 293 295 296 298 299 301 304 310 315 319 322 326 330
288 288 289 289 290 290 291 292 292 292 293 293 294 294 294 294 294 294 294 294 293 292 290 289 287 286 284 284 284 284 287 290 292 293 295 297 299 301 306 311 316 321 325 329
289 290 290 291 292 292 293 293 294 294 295 295 296 296 296 296 295 294 294 293 291 290 288 286 284 281 278 277 278 280 282 285 287 290 291 291 295 299 303 306 311 317 323 328
291 292 292 293 294 294 295 296 296 296 297 297 297 297 297 297 296 295 294 292 290 288 285 281 277 274 273 272 273 276 277 279 283 286 287 289 292 295 299 303 307 312 319 326
292 293 294 295 295 296 297 298 298 298 299 299 299 299 299 299 298 296 293 290 287 284 280 276 272 268 267 266 266 268 271 273 277 280 282 286 288 290 293 298 302 306 312 322
Height
5850 5849 5848 5848 5847 5846 5845 5844 5843 5841 5839 5837 5834 5832 5829 5827 5824 5821 5818 5815 5811 5808 5804 5800 5796 5791 5787 5782 5777 5771 5765 5759 5753 5747 5741 5734 5727 5721 5714 5707 5700 5693 5686 5680
5848 5846 5845 5844 5844 5842 5841 5840 5839 5837 5836 5833 5830 5827 5825 5822 5819 5817 5814 5810 5807 5803 5799 5794 5790 5786 5781 5776 5770 5764 5758 5752 5746 5739 5733 5726 5719 5712 5705 5697 5690 5683 5676 5670
5845 5844 5842 5842 5840 5839 5838 5837 5835 5833 5832 5828 5825 5823 5820 5817 5815 5812 5809 5806 5802 5798 5793 5789 5785 5780 5775 5769 5763 5758 5752 5745 5739 5732 5725 5717 5710 5703 5695 5688 5680 5672 5665 5659
5842 5842 5841 5841 5837 5836 5834 5833 5831 5829 5826 5824 5821 5818 5815 5813 5810 5807 5804 5800 5797 5792 5788 5783 5779 5774 5768 5763 5757 5751 5744 5738 5731 5723 5716 5708 5701 5693 5685 5678 5670 5662 5655 5648
5840 5838 5838 5837 5834 5833 5831 5830 5827 5825 5822 5819 5816 5814 5811 5808 5805 5802 5798 5795 5791 5787 5782 5778 5773 5768 5762 5756 5750 5744 5737 5730 5722 5715 5707 5699 5691 5683 5676 5668 5660 5652 5645 5638
5836 5834 5834 5834 5831 5829 5828 5826 5823 5820 5817 5814 5811 5809 5806 5802 5799 5796 5792 5789 5785 5781 5777 5772 5767 5761 5755 5749 5743 5736 5729 5721 5714 5706 5698 5690 5682 5674 5666 5658 5650 5642 5635 5628
5831 5829 5828 5828 5826 5824 5823 5821 5818 5815 5812 5809 5806 5804 5801 5797 5793 5789 5786 5782 5779 5774 5770 5765 5759 5754 5748 5741 5735 5728 5720 5713 5705 5697 5689 5681 5673 5664 5657 5649 5641 5633 5626 5618
5825 5824 5825 5822 5820 5819 5817 5814 5812 5809 5806 5804 5801 5798 5794 5791 5787 5783 5779 5776 5771 5767 5762 5757 5752 5746 5740 5733 5726 5719 5712 5704 5696 5688 5680 5671 5663 5655 5647 5640 5632 5624 5616 5609
5819 5820 5818 5815 5813 5812 5809 5807 5805 5803 5800 5797 5795 5792 5788 5785 5781 5777 5773 5768 5764 5759 5754 5749 5743 5737 5731 5724 5717 5710 5702 5694 5686 5678 5669 5661 5654 5646 5638 5630 5623 5615 5608 5601
5811 5811 5810 5808 5806 5804 5802 5800 5798 5796 5793 5791 5788 5785 5782 5778 5774 5770 5765 5760 5756 5751 5746 5740 5734 5728 5722 5715 5708 5701 5693 5685 5676 5668 5659 5651 5644 5637 5629 5622 5615 5607 5600 5593
5804 5804 5802 5801 5799 5797 5795 5793 5791 5789 5786 5783 5780 5778 5774 5770 5766 5762 5757 5752 5747 5742 5737 5731 5725 5719 5713 5706 5699 5692 5683 5675 5667 5658 5650 5642 5634 5627 5621 5614 5607 5600 5593 5586
5796 5795 5793 5793 5792 5790 5788 5786 5783 5781 5778 5775 5772 5769 5765 5761 5757 5753 5748 5743 5738 5733 5727 5722 5716 5710 5703 5697 5689 5682 5674 5665 5657 5649 5641 5633 5626 5619 5612 5606 5599 5593 5586 5579
5788 5787 5785 5783 5782 5781 5779 5776 5774 5771 5769 5766 5762 5759 5756 5752 5748 5743 5738 5733 5728 5722 5717 5712 5706 5700 5693 5686 5679 5671 5663 5656 5647 5640 5632 5625 5618 5612 5605 5598 5591 5585 5579 5573
5780 5778 5775 5774 5772 5770 5768 5766 5763 5761 5758 5755 5752 5749 5745 5741 5737 5732 5727 5722 5717 5712 5707 5701 5695 5689 5682 5676 5669 5661 5653 5646 5638 5631 5624 5617 5611 5605 5599 5592 5586 5579 5573 5567
5770 5768 5766 5763 5761 5760 5758 5755 5753 5750 5747 5744 5741 5738 5734 5730 5726 5721 5716 5710 5705 5701 5696 5690 5684 5678 5671 5665 5658 5650 5643 5636 5629 5622 5616 5609 5603 5598 5592 5585 5580 5573 5567 5561
5760 5758 5755 5753 5751 5749 5747 5744 5742 5739 5736 5733 5729 5726 5722 5718 5713 5708 5703 5698 5694 5689 5684 5679 5673 5666 5659 5653 5646 5639 5633 5626 5620 5614 5607 5601 5596 5590 5584 5579 5573 5567 5561 5555
5749 5747 5745 5743 5741 5738 5735 5733 5730 5727 5724 5720 5716 5712 5708 5704 5700 5695 5690 5685 5681 5677 5672 5666 5659 5653 5646 5640 5634 5628 5622 5616 5611 5605 5599 5594 5588 5583 5578 5572 5567 5561 5555 5550
5738 5736 5734 5732 5729 5726 5723 5720 5717 5713 5710 5706 5702 5697 5693 5689 5685 5680 5676 5671 5667 5662 5657 5650 5644 5639 5633 5628 5622 5617 5611 5606 5601 5596 5591 5586 5581 5576 5571 5566 5561 5556 5550 5545
5725 5723 5721 5718 5716 5713 5710 5706 5703 5698 5694 5690 5686 5682 5678 5673 5669 5665 5660 5656 5651 5647 5642 5635 5630 5625 5620 5615 5610 5605 5601 5596 5592 5588 5583 5579 5574 5570 5565 5560 5556 5551 5545 5540
5712 5709 5707 5704 5701 5697 5694 5690 5686 5682 5677 5673 5669 5665 5661 5656 5652 5648 5643 5639 5634 5629 5625 5620 5615 5610 5606 5602 5598 5594 5590 5586 5583 5579 5575 5571 5567 5563 5559 5555 5550 5546 5541 5536
5698 5695 5692 5689 5685 5681 5677 5673 5669 5664 5660 5656 5651 5647 5643 5639 5634 5629 5625 5622 5617 5612 5608 5604 5600 5596 5592 5589 5586 5582 5579 5576 5573 5570 5567 5564 5560 5557 5553 5549 5545 5541 5537 5532
5683 5680 5676 5672 5668 5664 5660 5655 5651 5646 5642 5637 5633 5628 5624 5620 5616 5611 5607 5602 5599 5595 5591 5588 5585 5582 5579 5576 5573 5571 5569 5567 5564 5562 5559 5556 5553 5551 5548 5544 5541 5537 5533 5529
5666 5662 5658 5654 5650 5646 5641 5636 5632 5627 5623 5618 5613 5609 5605 5601 5596 5593 5590 5586 5582 5579 5575 5573 5570 5568 5565 5563 5562 5560 5559 5557 5555 5554 5552 5549 5547 5545 5542 5539 5536 5533 5529 5526
5647 5643 5639 5634 5630 5626 5621 5617 5612 5607 5602 5598 5593 5588 5584 5581 5578 5573 5570 5568 5565 5562 5559 5557 5555 5554 5553 5551 5551 5550 5549 5548 5547 5546 5544 5543 5541 5539 5537 5535 5532 5529 5526 5523
5628 5624 5619 5615 5610 5606 5601 5597 5592 5587 5583 5578 5574 5569 5564 5561 5558 5555 5552 5550 5547 5545 5544 5542 5541 5541 5540 5540 5540 5540 5540 5540 5539 5539 5538 5536 5535 5533 5532 5530 5528 5526 5523 5520
5609 5604 5600 5595 5591 5586 5582 5577 5573 5568 5563 5559 5555 5550 5546 5542 5539 5537 5534 5532 5530 5529 5528 5528 5528 5528 5529 5530 5531 5531 5532 5532 5532 5532 5531 5530 5529 5528 5527 5525 5524 5522 5520 5518
5591 5586 5582 5578 5573 5568 5563 5559 5554 5550 5545 5541 5537 5533 5529 5526 5524 5521 5519 5517 5516 5516 5516 5516 5517 5518 5519 5520 5522 5523 5524 5524 5525 5525 5525 5524 5524 5523 5522 5521 5520 5519 5517 5516